"Pseudo-MPEC" for C15XTE5

Created 2025 Oct 11 6:35:05 UT using Find_Orb

Click here for an explanation of pseudo-MPECs

 
 Astrometry: 
     C15XTE5* C2025 10 03.25202700 30 07.927+12 05 11.76   ~A36o 21.78GVNEOCPV00
     C15XTE5  C2025 10 03.25762800 30 08.334+12 04 50.66   ~A36o 21.99GVNEOCPV00
     C15XTE5  C2025 10 03.26322100 30 08.719+12 04 29.50   ~A36o 22.05GVNEOCPV00
     C15XTE5  C2025 10 03.26881000 30 09.090+12 04 08.54   ~A36o 22.00GVNEOCPV00
     C15XTE5 KC2025 10 03.35748300 30 15.203+11 58 26.62   ~A39K 22.51GVNEOCPV06
     C15XTE5 KC2025 10 03.36383900 30 15.664+11 58 01.56   ~A39K 21.61GVNEOCPV06
     C15XTE5 KC2025 10 03.37019600 30 16.117+11 57 36.68   ~A39K 21.95GVNEOCPV06
     C15XTE5 KC2025 10 03.37655400 30 16.592+11 57 11.95   ~A39K 21.79GVNEOCPV06
     C15XTE5 KC2025 10 04.18584900 31 49.501+11 02 53.20   ~A45K 21.51GVNEOCPV06
     C15XTE5 KC2025 10 04.19205700 31 50.020+11 02 26.66   ~A45K 21.51GVNEOCPV06
     C15XTE5 KC2025 10 04.19826400 31 50.563+11 02 01.18   ~A45K 22.32GVNEOCPV06
     C15XTE5 KC2025 10 04.20446900 31 51.049+11 01 36.88   ~A45K       VNEOCPV06

Station data:
(V00) Kitt Peak-Bok  (N31.963125 W111.600190)  US/Arizona. Measurers T.
   Beuden, V. F. Carvajal, D. Fay, J. B. Fazekas, D. C. Fuls, A. R. Gibbs, A.
   D. Grauer, H. Gröller, J. K. Hogan, R. A. Kowalski, S. M. Larson, G. J.
   Leonard, D. Rankin, R. L. Seaman, F. C. Shelly, K. W. Wierzchoś. 2.25-m
   reflector + 4x4K mosaic CCD.
(V06) Catalina Sky Survey-Kuiper  (N32.416871 W110.732550)  US/Arizona.
   Measurers T. Beuden, V. F. Carvajal, D. Fay, J. B. Fazekas, D. C. Fuls, A.
   R. Gibbs, A. D. Grauer, H. Gröller, J. K. Hogan, R. A. Kowalski, S. M.
   Larson, G. J. Leonard, D. Rankin, R. L. Seaman, F. C. Shelly, K. W.
   Wierzchoś. 1.55-m reflector + CCD.

Orbital elements:  C15XTE5
   Perihelion 2025 Dec 6.418318 +/- 0.08 TT = 10:02:22.6 (JD 2461015.918318)
Epoch 2025 Oct  4.0 TT = JDT 2460952.5   Earth MOID: 0.0391   Ma: 0.0946
M 318.505137045 +/- 0.36            (J2000 ecliptic)             AutoNEOCP
n   0.654304061 +/- 0.00495         Peri.  247.330049 +/- 0.36
a   1.314063356 +/- 0.00662         Node   194.944514 +/- 0.020
e   0.30046129 +/- 0.00643          Incl.    8.266561 +/- 0.07
P   1.506/550.193d         H 26.60  G  0.15   U  9.2
q 0.919238183 +/- 0.00403    Q 1.708888530 +/- 0.017
From 12 observations 2025 Oct. 3-4 (22.9 hr); mean residual 0".29
Residuals in arcseconds: 
251003 V00  .09-  .18-    251003 V06  .03+  .23+    251004 V06  .06-  .19+    
251003 V00  .14+  .07-    251003 V06  .06+  .06-    251004 V06  .11-  .69-    
251003 V00  .09+  .02-    251003 V06  .09-  .12-    251004 V06  .28+  .47-    
251003 V00  .15-  .25+    251003 V06  .03+  .00     251004 V06  .11-  .95+    

Ephemerides (geocentric):
Date (UTC) HH   RA             Dec           delta  r     elong  mag " sig PA
---- --------  ------------   ------------  ------ ------ -----  --- --------
2025 10 11 07  00 51 10.149   -01 19 42.25  .06212 1.0597 170.9 21.3  205 158
2025 10 11 08  00 51 20.036   -01 26 01.25  .06197 1.0595 170.8 21.3  209 158
2025 10 11 09  00 51 29.972   -01 32 22.05  .06182 1.0593 170.7 21.3  212 158
2025 10 11 10  00 51 39.958   -01 38 44.66  .06167 1.0592 170.6 21.3  215 158
2025 10 11 11  00 51 49.994   -01 45 09.10  .06152 1.0590 170.4 21.3  219 158
2025 10 11 12  00 52 00.081   -01 51 35.36  .06137 1.0588 170.3 21.3  222 158
2025 10 11 13  00 52 10.219   -01 58 03.47  .06122 1.0586 170.2 21.3  226 158
2025 10 11 14  00 52 20.408   -02 04 33.42  .06108 1.0584 170.1 21.3  229 158
2025 10 11 15  00 52 30.649   -02 11 05.22  .06093 1.0583 170.0 21.3  233 158
2025 10 11 16  00 52 40.941   -02 17 38.90  .06078 1.0581 169.9 21.3  236 158
2025 10 11 17  00 52 51.287   -02 24 14.44  .06063 1.0579 169.8 21.3  240 158
2025 10 11 18  00 53 01.685   -02 30 51.87  .06048 1.0577 169.6 21.3  244 158
2025 10 11 19  00 53 12.136   -02 37 31.19  .06034 1.0576 169.5 21.3  248 158
2025 10 11 20  00 53 22.640   -02 44 12.41  .06019 1.0574 169.4 21.3  251 158
2025 10 11 21  00 53 33.199   -02 50 55.55  .06004 1.0572 169.3 21.3  255 158
2025 10 11 22  00 53 43.811   -02 57 40.60  .05990 1.0570 169.2 21.3  259 158
2025 10 11 23  00 53 54.478   -03 04 27.58  .05975 1.0568 169.1 21.3  263 158
2025 10 12 00  00 54 05.200   -03 11 16.49  .05961 1.0567 168.9 21.3  267 158
2025 10 12 01  00 54 15.978   -03 18 07.35  .05946 1.0565 168.8 21.3  271 158
2025 10 12 02  00 54 26.811   -03 25 00.17  .05932 1.0563 168.7 21.3  275 158
2025 10 12 03  00 54 37.700   -03 31 54.95  .05917 1.0561 168.6 21.3  279 158
2025 10 12 04  00 54 48.646   -03 38 51.70  .05903 1.0560 168.4 21.3  284 158
2025 10 12 05  00 54 59.649   -03 45 50.43  .05888 1.0558 168.3 21.3  288 158
2025 10 12 06  00 55 10.709   -03 52 51.15  .05874 1.0556 168.2 21.3  292 158
2025 10 12 07  00 55 21.827   -03 59 53.88  .05860 1.0554 168.1 21.3  297 158
2025 10 12 08  00 55 33.003   -04 06 58.61  .05846 1.0553 168.0 21.3  301 158
2025 10 12 09  00 55 44.237   -04 14 05.36  .05831 1.0551 167.8 21.3  305 158
2025 10 12 10  00 55 55.531   -04 21 14.13  .05817 1.0549 167.7 21.3  310 158
2025 10 12 11  00 56 06.883   -04 28 24.94  .05803 1.0547 167.6 21.3  314 158
2025 10 12 12  00 56 18.296   -04 35 37.80  .05789 1.0545 167.4 21.3  319 158
2025 10 12 13  00 56 29.768   -04 42 52.70  .05775 1.0544 167.3 21.3  324 158
2025 10 12 14  00 56 41.302   -04 50 09.68  .05761 1.0542 167.2 21.3  328 158
2025 10 12 15  00 56 52.896   -04 57 28.72  .05747 1.0540 167.1 21.2  333 158
2025 10 12 16  00 57 04.552   -05 04 49.84  .05733 1.0538 166.9 21.2  338 158
2025 10 12 17  00 57 16.270   -05 12 13.05  .05719 1.0537 166.8 21.2  343 158
2025 10 12 18  00 57 28.051   -05 19 38.36  .05705 1.0535 166.7 21.2  348 158
2025 10 12 19  00 57 39.894   -05 27 05.77  .05691 1.0533 166.5 21.2  353 158
2025 10 12 20  00 57 51.800   -05 34 35.30  .05677 1.0531 166.4 21.2  358 158
2025 10 12 21  00 58 03.770   -05 42 06.95  .05663 1.0530 166.3 21.2  363 158
2025 10 12 22  00 58 15.805   -05 49 40.74  .05649 1.0528 166.1 21.2  368 158
2025 10 12 23  00 58 27.904   -05 57 16.67  .05635 1.0526 166.0 21.2  373 158
2025 10 13 00  00 58 40.069   -06 04 54.75  .05622 1.0524 165.9 21.2  379 158
2025 10 13 01  00 58 52.299   -06 12 34.99  .05608 1.0523 165.7 21.2  384 158
2025 10 13 02  00 59 04.595   -06 20 17.39  .05594 1.0521 165.6 21.2  389 158
2025 10 13 03  00 59 16.957   -06 28 01.98  .05581 1.0519 165.4 21.2  395 158
2025 10 13 04  00 59 29.387   -06 35 48.75  .05567 1.0517 165.3 21.2  400 158
2025 10 13 05  00 59 41.885   -06 43 37.71  .05554 1.0516 165.2 21.2  406 158
2025 10 13 06  00 59 54.450   -06 51 28.87  .05540 1.0514 165.0 21.2  411 158